User: anonymous   Login
Location: Laguna de la Cañada del Gallo
(40.3974°N, 5.2096°W)
Time: 21:13:30
(UTC+00:00)
Language:

Tiangong - Orbit

View from above orbital plane
View from above orbital plane
View from above satellite
View from above satellite

Ground track
Ground track

The orbit data is extracted from the following two-line orbital elements,

1 48274U 21035A   24165.52100858  .00018254  00000-0  20846-3 0  9996
2 48274  41.4679 105.4665 0003478 220.1017 139.9565 15.61754353178521
Epoch (UTC): 13 June 2024 12:30:15
Eccentricity: 0.0003478
inclination: 41.4679°
perigee height: 380 km
apogee height: 385 km
right ascension of ascending node: 105.4665°
argument of perigee: 220.1017°
revolutions per day: 15.61754353
mean anomaly at epoch: 139.9565°
orbit number at epoch: 17852

The dashed part of the orbit path shows where the satellite is in the earth's shadow,  

DLR